[[{"header":{"parameterUnit":"m.s-1","parameterCategory":1,"la1":30.2991,"la2":30.254,"lo1":-89.0895,"lo2":-89.0444,"dy":0.0017,"dx":0.0017,"nx":28,"ny":28,"refTime":"2025-01-11T09:00:00:Z","depth":0,"parameterNumber":2,"parameterNumberName":"U-component_of_WINDS"},"data":[0,0,0,0,0,0,0,0,0,0,0,0,0,0,0,0,0,0,0,0,0,0,0,0,0,0,0,0,0,0,0,0,0,0,0,0,0,0,0,0,0,0,0,0,0,0,0,0,0,0,0,0,0,0,0,0,0,0,-5.5825,-5.5825,0,-5.5747,-5.5746,-5.5745,-5.5575,-5.5571,-5.5568,-5.5564,-5.5488,-5.5489,-5.549,0,0,0,0,0,0,0,0,0,0,0,0,0,-5.583,-5.583,-5.5825,-5.5824,-5.5823,-5.5747,-5.5746,-5.5745,-5.5575,-5.5571,-5.5567,-5.5563,-5.5487,-5.5489,-5.549,0,0,0,0,0,0,0,0,0,0,0,0,0,-5.5798,-5.5831,-5.5826,-5.5729,-5.572,-5.5748,-5.5746,-5.5745,-5.5576,-5.5571,-5.5566,-5.5561,-5.5487,-5.5489,-5.549,-5.5606,0,0,-5.5496,-5.5497,0,0,0,0,0,0,0,0,-5.58,-5.5798,-5.5745,-5.5736,-5.5726,-5.5665,-5.5719,-5.5699,-5.5578,-5.5631,-5.5564,-5.5558,-5.5551,-5.5547,-5.5544,-5.5603,-5.5599,-5.5496,-5.5497,-5.5498,-5.5499,0,0,0,0,0,0,0,-5.5802,-5.58,-5.5794,-5.5744,-5.5732,-5.5691,-5.5681,-5.5715,-5.5622,-5.5626,-5.5613,-5.5606,-5.5545,-5.5543,-5.5541,-5.5598,-5.5496,-5.5498,-5.5499,-5.55,-5.5744,-5.5749,0,0,0,0,0,0,-5.5818,-5.5803,-5.5797,-5.5792,-5.575,-5.5695,-5.5683,-5.569,-5.5621,-5.5605,-5.5611,-5.5599,-5.5543,-5.5539,-5.5538,-5.5666,-5.5498,-5.55,-5.5501,-5.5739,-5.5745,-5.5751,0,0,0,0,0,0,-5.5819,-5.5819,-5.58,-5.5794,-5.5788,-5.57,-5.5709,-5.5691,-5.5689,-5.5609,-5.5592,-5.5626,-5.5538,-5.5535,-5.5589,-5.5661,-5.5501,-5.5502,-5.5733,-5.5741,-5.5748,-5.5925,0,0,0,0,0,0,-5.5819,-5.582,-5.5863,-5.5796,-5.5789,-5.5853,-5.5714,-5.5693,-5.5692,-5.5675,-5.5618,-5.5604,-5.5534,-5.5588,-5.5591,-5.566,-5.5504,-5.5726,-5.5736,-5.5746,-5.5912,-5.5938,-5.596,0,0,0,0,0,-5.582,-5.5917,-5.5866,-5.5866,-5.5841,-5.5857,-5.5853,-5.577,-5.5699,-5.574,-5.5689,-5.5606,-5.5654,-5.5595,-5.5597,-5.5668,-5.5721,-5.5733,-5.5745,-5.5901,-5.5933,-5.5959,0,0,0,0,0,0,-5.5996,-5.5906,-5.5849,-5.5927,-5.5901,-5.5828,-5.5879,-5.5806,-5.5801,-5.5786,-5.5683,-5.5672,-5.5739,-5.571,-5.5646,-5.5775,-5.5673,-5.5687,-5.5791,-5.5821,-5.5844,-5.5849,-5.5505,0,0,0,0,0,-5.6043,-5.6063,-5.5985,-5.6061,-5.6051,-5.5968,-5.5972,-5.591,-5.5879,-5.5868,-5.582,-5.5794,-5.5802,-5.5811,-5.5814,-5.5908,-5.5892,-5.5958,-5.5982,-5.6002,-5.6014,-5.6058,-5.6086,-5.5791,-5.5791,-5.5791,0,0,-5.6142,-5.6096,-5.6115,-5.6095,-5.6068,-5.6091,-5.596,-5.599,-5.6006,-5.5872,-5.5919,-5.5884,-5.5848,-5.5922,-5.5952,-5.5899,-5.6092,-5.6018,-5.6034,-5.6035,-5.6073,-5.6101,-5.6126,-5.58,-5.5798,-5.5797,0,0,-5.6333,-5.6301,-5.6359,-5.6334,-5.6293,-5.6237,-5.6252,-5.619,-5.6161,-5.6207,-5.6106,-5.6124,-5.6142,-5.612,-5.6111,-5.6293,-5.6215,-5.6298,-5.6421,-5.6466,-5.6489,-5.6509,-5.6571,-5.6594,-5.631,-5.6311,-5.6311,0,-5.646,-5.649,-5.6399,-5.6435,-5.6428,-5.6308,-5.6366,-5.6346,-5.631,-5.6309,-5.625,-5.6268,-5.6236,-5.6301,-5.6345,-5.6343,-5.6355,-5.6302,-5.6493,-5.6512,-5.6529,-5.6587,-5.6611,-5.6321,-5.632,-5.6318,-5.6318,0,-5.6648,-5.667,-5.6723,-5.6688,-5.6688,-5.6736,-5.6652,-5.6663,-5.6602,-5.6552,-5.6599,-5.6556,-5.6547,-5.6559,-5.65,-5.6616,-5.6584,-5.6511,-5.6406,-5.6569,-5.6621,-5.6643,-5.6335,-5.6331,-5.6328,-5.6326,0,0,-5.6945,-5.6859,-5.6879,-5.6861,-5.6807,-5.6823,-5.6865,-5.6855,-5.6866,-5.6846,-5.6877,-5.6894,-5.6826,-5.6816,-5.6754,-5.6793,-5.6936,-5.6715,-5.6712,-5.6754,-5.7057,-5.711,-5.7137,-5.6886,-5.689,-5.6893,-5.7059,0,-5.712,-5.7184,-5.7104,-5.7186,-5.7204,-5.709,-5.7126,-5.7098,-5.7053,-5.7062,-5.7013,-5.7025,-5.6936,-5.6928,-5.6963,-5.6912,-5.6995,-5.6899,-5.6912,-5.6914,-5.6921,-5.7165,-5.7221,-5.738,-5.708,-5.7083,-5.7085,0,-5.7333,-5.732,-5.7404,-5.7342,-5.7347,-5.7381,-5.7364,-5.7376,-5.7341,-5.7305,-5.7294,-5.7219,-5.7255,-5.7156,-5.7204,-5.7141,-5.7142,-5.7118,-5.7122,-5.7117,-5.7007,-5.7163,-5.7429,-5.7451,-5.7118,-5.7115,-5.7113,0,-5.7537,-5.7541,-5.759,-5.7579,-5.751,-5.7536,-5.7509,-5.7469,-5.7468,-5.7454,-5.7452,-5.7445,-5.744,-5.7435,-5.736,-5.7295,-5.7416,-5.7312,-5.7386,-5.7388,-5.7414,-5.7412,-5.7679,-5.7422,-5.7421,-5.7421,-5.742,0,-5.7738,-5.7793,-5.768,-5.7711,-5.7768,-5.7676,-5.7736,-5.7697,-5.7663,-5.7683,-5.7586,-5.7608,-5.7508,-5.7519,-5.7461,-5.7508,-5.7508,-5.7479,-5.7462,-5.7485,-5.7488,-5.7482,-5.7467,-5.7427,-5.7426,-5.7424,-5.7423,0,-5.7974,-5.7901,-5.7947,-5.7878,-5.7862,-5.7907,-5.7848,-5.7873,-5.7822,-5.7849,-5.785,-5.7771,-5.7778,-5.7703,-5.7698,-5.7658,-5.7731,-5.7697,-5.7742,-5.773,-5.7807,-5.78,-5.8076,-5.8107,-5.7834,-5.7837,-5.7839,0,-5.8106,-5.8145,-5.808,-5.8085,-5.8063,-5.8075,-5.8072,-5.7983,-5.7985,-5.7947,-5.7977,-5.7977,-5.7971,-5.7989,-5.793,-5.7925,-5.7888,-5.7985,-5.7886,-5.7908,-5.7885,-5.7882,-5.7884,-5.8005,-5.8008,-5.8011,-5.8013,0,-5.8346,-5.8308,-5.8308,-5.8295,-5.8294,-5.8281,-5.826,-5.8271,-5.8175,-5.8182,-5.8187,-5.8183,-5.8176,-5.8176,-5.8159,-5.8131,-5.8056,-5.8046,-5.8062,-5.8084,-5.8107,-5.8092,-5.7795,-5.8039,-5.8036,-5.8034,-5.8033,-5.8032,-5.8531,-5.8559,-5.8517,-5.8519,-5.8495,-5.8478,-5.8497,-5.8448,-5.8451,-5.8437,-5.8385,-5.84,-5.8363,-5.8332,-5.8311,-5.8321,-5.8273,-5.8298,-5.8304,-5.831,-5.8322,-5.8109,-5.8318,-5.8318,-5.8317,-5.8316,-5.8315,0,-5.8763,-5.873,-5.8733,-5.8707,-5.8709,-5.8638,-5.8612,-5.8618,-5.8632,-5.8603,-5.8599,-5.8605,-5.8605,-5.8547,-5.8539,-5.8558,-5.8523,-5.8559,-5.8554,-5.8549,-5.8367,-5.8352,-5.8587,-5.8587,-5.8587,-5.8587,-5.8587,-5.8587,-5.8883,-5.8926,-5.8883,-5.8912,-5.8879,-5.8891,-5.8882,-5.8866,-5.8842,-5.8852,-5.8851,-5.8813,-5.8772,-5.876,-5.8756,-5.8739,-5.8739,-5.8786,-5.8757,-5.8588,-5.8562,-5.8537,-5.8521,-5.8788,-5.8788,-5.8937,-5.8938,-5.8939]},{"header":{"parameterUnit":"m.s-1","parameterCategory":1,"la1":30.2991,"la2":30.254,"lo1":-89.0895,"lo2":-89.0444,"dy":0.0017,"dx":0.0017,"nx":28,"ny":28,"refTime":"2025-01-11T09:00:00:Z","depth":0,"parameterNumber":3,"parameterNumberName":"V-component_of_WINDS"},"data":[0,0,0,0,0,0,0,0,0,0,0,0,0,0,0,0,0,0,0,0,0,0,0,0,0,0,0,0,0,0,0,0,0,0,0,0,0,0,0,0,0,0,0,0,0,0,0,0,0,0,0,0,0,0,0,0,0,0,-0.7386,-0.7386,0,-0.7355,-0.7354,-0.7354,-0.7349,-0.7349,-0.7349,-0.735,-0.7316,-0.7315,-0.7314,0,0,0,0,0,0,0,0,0,0,0,0,0,-0.7438,-0.7437,-0.7386,-0.7386,-0.7385,-0.7355,-0.7354,-0.7354,-0.7349,-0.7349,-0.7349,-0.735,-0.7317,-0.7316,-0.7314,0,0,0,0,0,0,0,0,0,0,0,0,0,-0.7412,-0.7436,-0.7386,-0.7379,-0.7378,-0.7355,-0.7354,-0.7354,-0.7349,-0.7349,-0.735,-0.735,-0.7317,-0.7316,-0.7314,-0.7295,0,0,-0.7309,-0.7308,0,0,0,0,0,0,0,0,-0.7413,-0.741,-0.7381,-0.738,-0.7378,-0.7356,-0.736,-0.7334,-0.7349,-0.736,-0.735,-0.735,-0.7329,-0.7327,-0.732,-0.7294,-0.7292,-0.7309,-0.7308,-0.7307,-0.7306,0,0,0,0,0,0,0,-0.7415,-0.7411,-0.7374,-0.738,-0.7379,-0.7376,-0.7373,-0.7355,-0.7343,-0.7359,-0.7359,-0.7355,-0.7329,-0.7321,-0.7319,-0.7292,-0.7309,-0.7307,-0.7306,-0.7305,-0.7244,-0.7243,0,0,0,0,0,0,-0.7418,-0.7413,-0.7375,-0.7373,-0.7397,-0.7375,-0.7371,-0.7363,-0.7343,-0.734,-0.7355,-0.7355,-0.7324,-0.7321,-0.7318,-0.7292,-0.7307,-0.7305,-0.7304,-0.7244,-0.7243,-0.7243,0,0,0,0,0,0,-0.7419,-0.7415,-0.7376,-0.7392,-0.7387,-0.7374,-0.7364,-0.7362,-0.7355,-0.734,-0.7337,-0.735,-0.7324,-0.732,-0.73,-0.729,-0.7304,-0.7303,-0.7245,-0.7244,-0.7243,-0.7241,0,0,0,0,0,0,-0.7421,-0.7415,-0.7409,-0.7392,-0.7386,-0.736,-0.7364,-0.7361,-0.7352,-0.7352,-0.7334,-0.7332,-0.7324,-0.7302,-0.7298,-0.7288,-0.7302,-0.7246,-0.7244,-0.7243,-0.7242,-0.724,-0.7239,0,0,0,0,0,-0.7423,-0.7411,-0.7409,-0.7405,-0.7379,-0.7359,-0.7356,-0.7348,-0.7351,-0.7344,-0.7333,-0.7332,-0.7292,-0.73,-0.7296,-0.7285,-0.7246,-0.7245,-0.7243,-0.7242,-0.724,-0.7239,0,0,0,0,0,0,-0.7428,-0.7409,-0.7407,-0.7389,-0.7376,-0.7359,-0.735,-0.7347,-0.7332,-0.7333,-0.7323,-0.7319,-0.7298,-0.729,-0.7299,-0.7263,-0.7269,-0.7267,-0.727,-0.7268,-0.7266,-0.7269,-0.73,0,0,0,0,0,-0.7427,-0.7413,-0.7397,-0.7383,-0.7376,-0.7364,-0.7355,-0.735,-0.7336,-0.733,-0.7318,-0.7304,-0.7287,-0.7277,-0.7262,-0.724,-0.7234,-0.723,-0.7229,-0.7227,-0.7225,-0.7209,-0.7206,-0.7238,-0.7238,-0.7238,0,0,-0.7425,-0.7412,-0.7405,-0.7383,-0.7373,-0.7357,-0.7359,-0.7344,-0.7332,-0.7328,-0.7307,-0.7298,-0.7281,-0.7259,-0.7248,-0.7251,-0.7215,-0.7226,-0.7225,-0.7223,-0.7208,-0.7205,-0.7202,-0.7237,-0.7237,-0.7238,0,0,-0.7413,-0.7403,-0.7389,-0.7377,-0.736,-0.7351,-0.7348,-0.733,-0.7323,-0.7303,-0.7298,-0.7282,-0.7256,-0.7243,-0.7233,-0.7211,-0.7208,-0.7206,-0.7198,-0.7182,-0.718,-0.7177,-0.7167,-0.7164,-0.7204,-0.7204,-0.7204,0,-0.7412,-0.7391,-0.7382,-0.7366,-0.7355,-0.7349,-0.7333,-0.7322,-0.7301,-0.7293,-0.7296,-0.7259,-0.7247,-0.722,-0.7215,-0.7207,-0.7201,-0.7208,-0.7181,-0.7179,-0.7176,-0.7166,-0.7163,-0.7204,-0.7204,-0.7204,-0.7204,0,-0.7389,-0.7374,-0.7364,-0.7343,-0.7331,-0.7315,-0.7302,-0.729,-0.7285,-0.7275,-0.7251,-0.7237,-0.7216,-0.721,-0.7205,-0.7181,-0.7182,-0.7183,-0.7189,-0.7173,-0.7163,-0.716,-0.7203,-0.7203,-0.7204,-0.7204,0,0,-0.7383,-0.7354,-0.735,-0.7339,-0.7318,-0.7305,-0.7287,-0.7266,-0.7256,-0.724,-0.7223,-0.7198,-0.7198,-0.7186,-0.7179,-0.7166,-0.7146,-0.7168,-0.7167,-0.7163,-0.7115,-0.7113,-0.7109,-0.7144,-0.7143,-0.7142,-0.7115,0,-0.7367,-0.7336,-0.7326,-0.7299,-0.7283,-0.7275,-0.7258,-0.7243,-0.7232,-0.7215,-0.7203,-0.7184,-0.7186,-0.7179,-0.7165,-0.7152,-0.7136,-0.7153,-0.7126,-0.7125,-0.713,-0.7105,-0.7105,-0.708,-0.7112,-0.7111,-0.7111,0,-0.7346,-0.7329,-0.7301,-0.7278,-0.727,-0.7257,-0.7235,-0.722,-0.72,-0.7192,-0.7177,-0.717,-0.7149,-0.7155,-0.7123,-0.7135,-0.7123,-0.7114,-0.7112,-0.7109,-0.7117,-0.7099,-0.7072,-0.7068,-0.7105,-0.7106,-0.7106,0,-0.7342,-0.7311,-0.7289,-0.728,-0.7254,-0.7243,-0.7232,-0.7212,-0.7199,-0.718,-0.7171,-0.7149,-0.7137,-0.7119,-0.7105,-0.7112,-0.7074,-0.708,-0.7065,-0.7065,-0.7058,-0.7059,-0.7027,-0.7052,-0.7052,-0.7052,-0.7052,0,-0.7325,-0.7308,-0.7287,-0.7273,-0.7252,-0.7239,-0.7217,-0.7205,-0.7187,-0.7169,-0.7161,-0.7144,-0.7127,-0.7107,-0.7096,-0.707,-0.7065,-0.7057,-0.7054,-0.7057,-0.7058,-0.7049,-0.705,-0.7051,-0.7051,-0.7051,-0.7051,0,-0.7318,-0.7303,-0.7278,-0.7254,-0.7247,-0.7232,-0.7211,-0.7196,-0.7183,-0.716,-0.7154,-0.7134,-0.711,-0.7094,-0.7064,-0.7056,-0.7026,-0.7025,-0.7033,-0.7031,-0.7017,-0.7018,-0.6978,-0.6971,-0.7001,-0.7001,-0.7001,0,-0.7308,-0.7294,-0.7267,-0.7255,-0.7243,-0.7223,-0.7209,-0.7194,-0.7179,-0.7153,-0.714,-0.7115,-0.7095,-0.7056,-0.7037,-0.7013,-0.7009,-0.6997,-0.7006,-0.7008,-0.7007,-0.7007,-0.7004,-0.6996,-0.6995,-0.6995,-0.6995,0,-0.7292,-0.7284,-0.7265,-0.7242,-0.7225,-0.7206,-0.7187,-0.7177,-0.7158,-0.7141,-0.7116,-0.7099,-0.7066,-0.7041,-0.7013,-0.6999,-0.6993,-0.6992,-0.6987,-0.699,-0.6994,-0.6989,-0.7028,-0.6993,-0.6993,-0.6993,-0.6994,-0.6994,-0.7282,-0.7268,-0.7246,-0.7223,-0.7207,-0.7188,-0.7172,-0.7156,-0.7135,-0.7107,-0.7098,-0.7071,-0.7047,-0.701,-0.6995,-0.6972,-0.6973,-0.6967,-0.6965,-0.6963,-0.6961,-0.6998,-0.6967,-0.6967,-0.6967,-0.6967,-0.6967,0,-0.7264,-0.7249,-0.7228,-0.72,-0.7182,-0.7177,-0.7154,-0.7138,-0.7114,-0.7093,-0.7071,-0.704,-0.7014,-0.6992,-0.6964,-0.6949,-0.6945,-0.6942,-0.6943,-0.6939,-0.6963,-0.6969,-0.6946,-0.6946,-0.6946,-0.6946,-0.6946,-0.6946,-0.7253,-0.7228,-0.7216,-0.7181,-0.7165,-0.7138,-0.7125,-0.7107,-0.7089,-0.7054,-0.7032,-0.7018,-0.6995,-0.6964,-0.6939,-0.6933,-0.6922,-0.6919,-0.6912,-0.6935,-0.6938,-0.694,-0.6946,-0.6917,-0.6917,-0.689,-0.689,-0.6889]}]]